Hayward, WI

5:04 AM CST on November 15, 2019 (GMT -0600)
Sawyer County

Weather History for KHYR - September, 2019

Change the Weather History Date:

Saturday, September 28, 2019

  Actual Average Record
Temperature  
Mean Temperature 46 °F -  
Max Temperature 59 °F 71 °F 80 °F (2014)
Min Temperature 35 °F 43 °F 26 °F (2001)
Degree Days  
Heating Degree Days 19    
Moisture  
Dew Point 36 °F    
Average Humidity 68    
Maximum Humidity 93    
Minimum Humidity 39    
Precipitation  
Precipitation 0.00 in - - ()
Sea Level Pressure  
Sea Level Pressure 30.21 in    
Wind  
Wind Speed 3 mph (NE)    
Max Wind Speed 14 mph    
Max Gust Speed 22 mph    
Visibility 9 miles    
Events      
Averages and records for this station are not official NWS values.
T = Trace of Precipitation, MM = Missing Value Source: NWS Daily Summary

Daily Weather History Graph

Daily Weather History Graph

Search for Another Location

Airport or City:

Astronomy

Sep. 28, 2019 Rise Set
Actual Time 7:00 AM CDT 6:51 PM CDT
Civil Twilight 6:30 AM CDT 7:21 PM CDT
Nautical Twilight 5:55 AM CDT 7:56 PM CDT
Astronomical Twilight 5:19 AM CDT 8:31 PM CDT
Moon 6:32 AM CDT (9/28) 7:20 PM CDT (9/28)
Length of Visible Light 12h 51m
Length of Day
11h 51m
Waning Crescent, 0% of the Moon is Illuminated
Sep 28
Waning Crescent
Sep 28
New
Oct 5
First Quarter
Oct 13
Full
Oct 21
Last Quarter

Hourly Weather History & Observations

Time (CDT) Temp. Windchill Dew Point Humidity Pressure Visibility Wind Dir Wind Speed Gust Speed Precip Events Conditions
12:53 AM 48.0 °F - 39.9 °F 74% 29.99 in 10.0 mi Calm Calm - N/A   Partly Cloudy
1:53 AM 45.0 °F - 41.0 °F 86% 30.04 in 10.0 mi Calm Calm - N/A   Overcast
2:53 AM 44.1 °F - 41.0 °F 89% 30.05 in 10.0 mi Calm Calm - N/A   Clear
3:53 AM 43.0 °F - 41.0 °F 93% 30.07 in 10.0 mi Calm Calm - N/A   Clear
4:53 AM 41.0 °F - 39.0 °F 93% 30.09 in 10.0 mi Calm Calm - N/A   Clear
5:53 AM 37.9 °F - 36.0 °F 93% 30.12 in 2.5 mi Calm Calm - N/A   Clear
6:06 AM 37.0 °F - 35.1 °F 93% 30.11 in 8.0 mi Calm Calm - N/A   Clear
6:53 AM 35.1 °F - 33.1 °F 92% 30.17 in 4.0 mi Calm Calm - N/A   Clear
7:17 AM 35.1 °F - 32.0 °F 89% 30.15 in 1.8 mi Calm Calm - N/A   Clear
7:26 AM 36.0 °F - 33.1 °F 89% 30.16 in 4.0 mi Calm Calm - N/A   Clear
7:53 AM 37.9 °F - 36.0 °F 93% 30.20 in 10.0 mi Calm Calm - N/A   Clear
8:53 AM 44.1 °F 42.5 °F 41.0 °F 89% 30.22 in 10.0 mi ENE 3.5 mph - N/A   Clear
9:53 AM 50.0 °F - 41.0 °F 71% 30.25 in 10.0 mi NNE 5.8 mph - N/A   Clear
10:53 AM 54.0 °F - 36.0 °F 51% 30.26 in 10.0 mi North 6.9 mph - N/A   Partly Cloudy
11:53 AM 55.9 °F - 36.0 °F 47% 30.27 in 10.0 mi Variable 6.9 mph - N/A   Clear
12:53 PM 57.0 °F - 35.1 °F 44% 30.27 in 10.0 mi North 6.9 mph 19.6 mph N/A   Clear
1:53 PM 57.0 °F - 34.0 °F 42% 30.27 in 10.0 mi NNE 11.5 mph 21.9 mph N/A   Clear
2:53 PM 57.9 °F - 35.1 °F 42% 30.27 in 10.0 mi NE 13.8 mph 18.4 mph N/A   Clear
3:53 PM 57.9 °F - 33.1 °F 39% 30.27 in 10.0 mi NNE 13.8 mph - N/A   Clear
4:53 PM 55.9 °F - 36.0 °F 47% 30.30 in 10.0 mi ENE 10.4 mph 16.1 mph N/A   Clear
5:53 PM 53.1 °F - 34.0 °F 48% 30.30 in 10.0 mi NE 6.9 mph - N/A   Clear
6:53 PM 51.1 °F - 33.1 °F 50% 30.30 in 10.0 mi ENE 5.8 mph - N/A   Clear
7:53 PM 50.0 °F - 34.0 °F 54% 30.33 in 10.0 mi ENE 5.8 mph - N/A   Clear
8:53 PM 48.9 °F - 35.1 °F 59% 30.34 in 10.0 mi NE 4.6 mph - N/A   Clear
9:53 PM 50.0 °F - 34.0 °F 54% 30.32 in 10.0 mi ENE 6.9 mph - N/A   Clear
10:53 PM 50.0 °F - 32.0 °F 50% 30.32 in 10.0 mi East 8.1 mph - N/A   Partly Cloudy
11:53 PM 48.9 °F - 33.1 °F 54% 30.34 in 10.0 mi ENE 6.9 mph - N/A   Partly Cloudy